Regional Weather Roundup
Issued by NWS

Home | Current Version | Previous Version | Text Only | Print | Product List | Glossary On
Versions: 1 2 3 4 5 6 7 8 9 10 11 12 13 14 15 16 17 18 19 20 21 22 23 24 25 26 27 28 29 30 31 32 33 34 35 36 37 38 39 40 41 42 43 44 45 46 47 48 49 50
000
ASUS45 KREV 030410
RWRNV
NEVADA REGIONAL WEATHER ROUNDUP
NATIONAL WEATHER SERVICE RENO NV
800 PM PST MON MAR 02 2015

NOTE: "FAIR" INDICATES FEW OR NO CLOUDS BELOW 12,000 FEET WITH NO
SIGNIFICANT WEATHER AND/OR OBSTRUCTIONS TO VISIBILITY.

NVZ001-003-004-030500-
WESTERN NEVADA

CITY           SKY/WX    TMP DP  RH WIND       PRES   REMARKS
RENO           FAIR      41  27  57 N6        29.87R
CARSON CITY    FAIR      37  27  65 NE6       29.86R
MINDEN         FAIR      34  23  64 S5        29.88
SLIDE MTN        N/A     19  16  86 CALM        N/A
PYRAMID LAKE     N/A     43 N/A N/A SW7         N/A
FALLON         FAIR      39  27  62 W6        29.84R
LOVELOCK       CLOUDY    42  29  59 W8        29.82R
HAWTHORNE      PTCLDY    43  30  61 CALM      29.86R
$$

NVZ002-CAZ072-073-030500-
NORTHERN AND CENTRAL SIERRA

CITY           SKY/WX    TMP DP  RH WIND       PRES   REMARKS
S. LAKE TAHOE  FAIR      32  24  72 SW3       29.86R
TRUCKEE        FAIR      28  27  93 CALM      29.88R
SQUAW VLY 8000   N/A     23  21  93 SW3         N/A
SUSANVILLE     PTCLDY    39  30  70 W13       29.86
BLUE CANYON    FAIR      32  28  85 NE3       29.90R
MAMMOTH LAKES  CLOUDY    30  25  80 CALM      29.87R
BRIDGEPORT     FAIR      28  16  60 CALM      29.83R
$$

NVZ030-031-036-030500-
NORTHERN NEVADA

CITY           SKY/WX    TMP DP  RH WIND       PRES   REMARKS
ELKO           FAIR      30  24  78 W5        29.77R
WINNEMUCCA     CLOUDY    38  28  67 S13       29.81R
WENDOVER       FAIR      32  28  86 CALM      29.76R
$$

NVZ035-037-030500-
CENTRAL NEVADA

CITY           SKY/WX    TMP DP  RH WIND       PRES   REMARKS
ELY            FAIR      25  23  92 CALM      29.81R
EUREKA           N/A     28  22  78 W7        29.81R
$$

NVZ013-014-030500-
SOUTH CENTRAL NEVADA

CITY           SKY/WX    TMP DP  RH WIND       PRES   REMARKS
TONOPAH        MOCLDY    34  25  69 NW5       29.85R
$$

NVZ017-020-022-030500-
SOUTHERN NEVADA

CITY           SKY/WX    TMP DP  RH WIND       PRES   REMARKS
LAS VEGAS      FAIR      49  35  58 SW6       29.86R
N. LAS VEGAS   FAIR      48  33  56 NW10      29.88R
NELLIS AFB     FAIR      49  37  61 CALM      29.89R
HENDERSON      FAIR      47  36  65 NE3       29.92R
MERCURY        FAIR      35  33  92 N5        29.89R
$$


USA.gov is the U.S. government's official web portal to all federal, state and local government web resources and services.